Location: Unspecified
(48.8656°N, 0.0000°E)
Time: 12:53:18
(UTC+00:00)

Vanguard 1 - Pass Details

Date: 20 June 2019
Orbit: 653 x 3830 km, 34.3° (Epoch: 17 July)

Event Time Altitude Azimuth Distance (km) Brightness Sun altitude
Rises 00:22:56 0° 190° (S) 7,774 - -17.5°
Reaches altitude 10° 00:32:35 10° 171° (S) 6,265 - -17.4°
Exits shadow 00:36:16 13° 161° (SSE) 5,764 13.4 -17.3°
Maximum altitude 00:40:27 14° 146° (SE) 5,315 13.4 -17.2°
Drops below altitude 10° 00:46:57 10° 120° (ESE) 5,044 13.5 -17.0°
Sets 00:52:49 0° 98° (E) 5,396 13.9 -16.8°
